Weather History for Kirksville, MO

Change the Weather History Date:

Sunday, December 8, 2013

  Actual Average Record
Temperature  
Mean Temperature 19 °F 30 °F  
Max Temperature 22 °F 39 °F 67 °F (1991)
Min Temperature 15 °F 22 °F -5 °F (1927)
Degree Days  
Heating Degree Days 46 34  
Month to date heating degree days 285 265  
Since 1 July heating degree days 1552 1486  
Cooling Degree Days 0 0  
Month to date cooling degree days 0 0  
Year to date cooling degree days 1028 939  
Moisture  
Dew Point 14 °F    
Average Humidity 73    
Maximum Humidity 92    
Minimum Humidity 53    
Precipitation  
Precipitation 0.04 in 0.07 in 0.79 in (1980)
Month to date precipitation 0.04 0.53  
Year to date precipitation 36.95 38.09  
Sea Level Pressure  
Sea Level Pressure 30.14 in    
Wind  
Wind Speed 8 mph (East)    
Max Wind Speed 16 mph    
Max Gust Speed 20 mph    
Visibility 4 miles    
Events Snow    
T = Trace of Precipitation, MM = Missing Value Source: NWS Daily Summary

Daily Weather History Graph

Daily Weather History Graph

Search for Another Location

Airport:

Trip Planner

Search our weather history database for the weather conditions in past years. The results will help you decide how hot, cold, wet, or windy it might be!

Date:

Astronomy

Dec. 08, 2013 Rise Set
Actual Time 7:19 AM CST 4:44 PM CST
Civil Twilight 6:49 AM CST 5:14 PM CST
Nautical Twilight 6:15 AM CST 5:48 PM CST
Astronomical Twilight 5:42 AM CST 6:21 PM CST
Moon 11:40 AM CST (12/8) 11:34 PM CST (12/8)
Length of Visible Light 10h 25m
Length of Day
9h 24m
Waxing Crescent, 40% of the Moon is Illuminated
Dec 8
Waxing Crescent
Dec 9
First Quarter
Dec 17
Full
Dec 25
Last Quarter
Jan 1
New

Hourly Weather History & Observations

Time (CST) Temp. Windchill Dew Point Humidity Pressure Visibility Wind Dir Wind Speed Gust Speed Precip Events Conditions
12:55 AM 16.0 °F 2.9 °F 1.9 °F 54% 30.48 in 10.0 mi East 11.5 mph - N/A   Mostly Cloudy
1:55 AM 16.0 °F 4.4 °F 3.0 °F 57% 30.45 in 10.0 mi East 9.2 mph - N/A   Overcast
2:55 AM 16.0 °F 3.6 °F 3.0 °F 57% 30.43 in 10.0 mi East 10.4 mph - N/A   Overcast
3:55 AM 17.1 °F 5.8 °F 3.9 °F 56% 30.40 in 10.0 mi East 9.2 mph - N/A   Overcast
4:55 AM 16.0 °F 3.6 °F 5.0 °F 62% 30.36 in 6.0 mi ENE 10.4 mph - 0.00 in Snow Light Snow
5:13 AM 16.0 °F 4.4 °F 7.0 °F 68% 30.30 in 2.0 mi ENE 9.2 mph - 0.00 in Snow Light Snow
5:36 AM 16.0 °F 2.9 °F 8.1 °F 71% 30.27 in 3.0 mi ENE 11.5 mph - 0.00 in Snow Light Snow
5:55 AM 16.0 °F 2.9 °F 8.1 °F 71% 30.33 in 4.0 mi ENE 11.5 mph - 0.00 in Snow Light Snow
6:55 AM 16.0 °F 2.9 °F 9.0 °F 74% 30.30 in 3.0 mi East 11.5 mph - 0.00 in Snow Light Snow
7:55 AM 16.0 °F 2.9 °F 9.0 °F 74% 30.28 in 9.0 mi East 11.5 mph - 0.00 in   Overcast
8:55 AM 17.1 °F 3.6 °F 10.0 °F 74% 30.27 in 4.0 mi East 12.7 mph - 0.00 in Snow Light Snow
9:34 AM 18.0 °F 5.4 °F 12.0 °F 78% 30.18 in 2.5 mi East 11.5 mph - 0.00 in Snow Light Snow
9:48 AM 18.0 °F 4.2 °F 12.0 °F 78% 30.17 in 1.2 mi East 13.8 mph - 0.00 in Snow Light Snow
9:55 AM 18.0 °F 3.6 °F 12.0 °F 78% 30.23 in 1.0 mi East 15.0 mph - 0.00 in Snow Light Snow
10:15 AM 18.0 °F 4.8 °F 12.9 °F 81% 30.17 in 1.2 mi East 12.7 mph - 0.01 in Snow Light Snow
10:55 AM 19.0 °F 10.0 °F 14.0 °F 81% 30.22 in 1.2 mi East 6.9 mph - 0.02 in Snow Light Snow
11:18 AM 19.0 °F 6.8 °F 14.0 °F 81% 30.13 in 1.5 mi East 11.5 mph - 0.00 in Snow Light Snow
11:42 AM 19.9 °F 11.1 °F 15.1 °F 81% 30.11 in 2.0 mi East 6.9 mph - 0.00 in Snow Light Snow
11:55 AM 19.9 °F 8.6 °F 15.1 °F 81% 30.15 in 2.5 mi ESE 10.4 mph - 0.00 in   Haze
12:11 PM 19.9 °F 7.9 °F 15.1 °F 81% 30.08 in 1.5 mi ESE 11.5 mph - 0.01 in Snow Light Snow
12:23 PM 19.9 °F 9.3 °F 15.1 °F 81% 30.06 in 1.8 mi East 9.2 mph - 0.01 in Snow Light Snow
12:55 PM 19.9 °F 9.3 °F 15.1 °F 81% 30.11 in 2.0 mi ESE 9.2 mph - 0.01 in Snow Light Snow
1:04 PM 19.9 °F 9.3 °F 15.1 °F 81% 30.04 in 3.0 mi ESE 9.2 mph - 0.00 in   Haze
1:18 PM 19.9 °F 11.1 °F 16.0 °F 85% 30.05 in 1.8 mi ESE 6.9 mph - 0.00 in Snow Light Snow
1:46 PM 21.0 °F 14.6 °F 17.1 °F 85% 30.03 in 0.8 mi ESE 4.6 mph - 0.00 in Snow Light Snow
1:55 PM 21.0 °F 13.4 °F 17.1 °F 85% 30.08 in 0.8 mi ESE 5.8 mph - 0.01 in Snow Light Snow
2:03 PM 21.0 °F 14.6 °F 17.1 °F 85% 30.02 in 1.2 mi ESE 4.6 mph - 0.00 in Snow Light Snow
2:12 PM 21.0 °F 13.4 °F 16.0 °F 81% 30.02 in 3.0 mi East 5.8 mph - 0.00 in   Haze
2:55 PM 21.9 °F 15.7 °F 17.1 °F 82% 30.05 in 4.0 mi East 4.6 mph - 0.00 in   Haze
3:06 PM 21.9 °F 15.7 °F 17.1 °F 82% 29.99 in 3.0 mi ESE 4.6 mph - N/A   Haze
3:19 PM 21.9 °F - 17.1 °F 82% 30.00 in 4.0 mi Calm Calm - N/A   Haze
3:55 PM 21.9 °F - 17.1 °F 82% 30.06 in 4.0 mi Calm Calm - N/A   Haze
4:55 PM 21.0 °F - 18.0 °F 88% 30.06 in 5.0 mi Calm Calm - N/A   Overcast
5:55 PM 21.0 °F - 18.0 °F 88% 30.06 in 5.0 mi Calm Calm - N/A   Overcast
6:10 PM 21.0 °F - 18.0 °F 88% 30.01 in 4.0 mi Calm Calm - N/A   Overcast
6:27 PM 21.0 °F - 18.0 °F 88% 30.02 in 4.0 mi Calm Calm - N/A   Overcast
6:38 PM 21.0 °F - 18.0 °F 88% 30.02 in 4.0 mi Calm Calm - N/A   Overcast
6:50 PM 21.2 °F - 17.6 °F 86% 30.03 in 3.0 mi Calm Calm - N/A   Overcast
6:55 PM 21.0 °F - 18.0 °F 88% 30.09 in 3.0 mi Calm Calm - N/A   Overcast
7:20 PM 21.0 °F - 19.0 °F 92% 30.03 in 2.5 mi Calm Calm - N/A   Overcast
7:35 PM 21.0 °F 14.6 °F 19.0 °F 92% 30.04 in 2.5 mi West 4.6 mph - N/A   Overcast
7:55 PM 21.0 °F 14.6 °F 19.0 °F 92% 30.10 in 2.5 mi West 4.6 mph - N/A   Overcast
8:45 PM 21.0 °F 12.4 °F 18.0 °F 88% 30.04 in 3.0 mi West 6.9 mph - N/A   Overcast
8:55 PM 21.0 °F 10.6 °F 18.0 °F 88% 30.10 in 3.0 mi West 9.2 mph - N/A   Overcast
9:55 PM 21.0 °F 10.6 °F 18.0 °F 88% 30.11 in 4.0 mi West 9.2 mph - 0.00 in Snow Light Snow
10:16 PM 21.0 °F 10.6 °F 18.0 °F 88% 30.06 in 5.0 mi West 9.2 mph - 0.00 in Snow Light Snow
10:55 PM 19.9 °F 9.3 °F 17.1 °F 89% 30.12 in 4.0 mi West 9.2 mph - 0.00 in Snow Light Snow
11:27 PM 19.0 °F 6.8 °F 15.1 °F 85% 30.07 in 8.0 mi West 11.5 mph - 0.00 in   Mostly Cloudy
11:37 PM 19.0 °F 8.2 °F 15.1 °F 85% 30.07 in 8.0 mi West 9.2 mph - 0.00 in   Scattered Clouds
11:55 PM 18.0 °F 8.7 °F 14.0 °F 84% 30.13 in 8.0 mi West 6.9 mph - 0.00 in   Partly Cloudy